DW7013 Weather Reports


time (UTC)temp
C
wind
direction
speed
KPH
gust
KPH
rain 1hr
cm
rain 24hr
cm
rain mn
cm
humidity
%
barometer
mb
20260503230723 11 355 0.0 0.0 0.00 0.00 0.00 69 1016.4
20260503230214 11 355 0.0 0.0 0.00 0.00 0.00 69 1016.4
20260503225721 11 355 0.0 0.0 0.00 0.00 0.00 69 1016.5
20260503225223 11 355 0.0 0.0 0.00 0.00 0.00 69 1016.4
20260503224718 11 355 0.0 0.0 0.00 0.00 0.00 68 1016.4
20260503224214 11 355 0.0 0.0 0.00 0.00 0.00 69 1016.4
20260503223709 11 355 0.0 0.0 0.00 0.00 0.00 68 1016.4
20260503223209 11 355 0.0 0.0 0.00 0.00 0.00 68 1016.2
20260503222709 11 355 0.0 0.0 0.00 0.00 0.00 68 1016.2
20260503222224 11 355 0.0 0.0 0.00 0.00 0.00 68 1016.2
20260503221728 11 355 0.0 0.0 0.00 0.00 0.00 68 1016.1
20260503221211 11 355 0.0 0.0 0.00 0.00 0.00 68 1016.1
20260503215722 11 355 0.0 0.0 0.00 0.00 0.00 67 1016.2
20260503215219 11 355 0.0 0.0 0.00 0.00 0.00 67 1016.1
20260503214720 11 355 0.0 0.0 0.00 0.00 0.00 67 1016.2
20260503214225 11 355 0.0 0.0 0.00 0.00 0.00 67 1016.2
20260503213720 11 341 0.0 0.0 0.00 0.00 0.00 68 1016.2
20260503213219 11 341 0.0 0.0 0.00 0.00 0.00 68 1016.2
20260503212216 11 341 0.0 0.0 0.00 0.00 0.00 66 1016.2
20260503211218 11 344 0.0 0.0 0.00 0.00 0.00 67 1016.2
20260503210712 11 344 0.0 0.0 0.00 0.00 0.00 66 1016.1
20260503210222 11 344 0.0 0.0 0.00 0.00 0.00 67 1016.1
20260503205723 11 344 0.0 0.0 0.00 0.00 0.00 67 1016.1
20260503205226 12 344 0.0 0.0 0.00 0.00 0.00 67 1016.1
20260503204223 12 344 0.0 0.0 0.00 0.00 0.00 66 1016.2
20260503203719 12 344 0.0 0.0 0.00 0.00 0.00 66 1016.2
20260503203209 12 344 0.0 0.0 0.00 0.00 0.00 66 1016.2
20260503202723 12 344 0.0 0.0 0.00 0.00 0.00 66 1016.2
20260503202226 12 348 0.0 0.0 0.00 0.00 0.00 65 1016.2
20260503201719 12 348 0.0 0.0 0.00 0.00 0.00 65 1016.4
20260503201227 12 348 0.0 0.0 0.00 0.00 0.00 65 1016.2
20260503200724 12 308 0.0 0.0 0.00 0.00 0.00 64 1016.2
20260503200224 12 304 0.0 0.0 0.00 0.00 0.00 64 1016.1
20260503195722 12 304 0.0 0.0 0.00 0.00 0.00 63 1016.1
20260503195216 12 308 0.0 0.0 0.00 0.00 0.00 63 1016.1
20260503194715 12 319 0.0 0.0 0.00 0.00 0.00 62 1016.1
20260503194228 12 319 0.0 0.0 0.00 0.00 0.00 61 1016.0
20260503193714 12 319 0.0 0.0 0.00 0.00 0.00 62 1016.0
20260503193222 12 304 0.0 0.0 0.00 0.00 0.00 61 1015.9
20260503192720 12 136 0.0 0.0 0.00 0.00 0.00 60 1016.0
20260503191220 12 146 0.0 0.0 0.00 0.00 0.00 59 1015.8
20260503190749 12 148 0.0 0.0 0.00 0.00 0.00 59 1015.8
20260503185722 13 73 0.0 0.0 0.00 0.00 0.00 59 1015.7
20260503185219 13 116 0.0 0.0 0.00 0.00 0.00 57 1015.8
20260503184710 13 117 0.0 0.0 0.00 0.00 0.00 57 1015.8
20260503183716 13 301 0.0 0.0 0.00 0.00 0.00 55 1015.9
20260503183217 13 326 0.0 0.0 0.00 0.00 0.00 55 1015.9
20260503182209 13 326 0.0 0.0 0.00 0.00 0.00 54 1015.9
20260503181727 13 342 0.0 0.0 0.00 0.00 0.00 55 1015.9
20260503181224 13 47 0.0 0.0 0.00 0.00 0.00 55 1015.8
20260503180709 13 13 0.0 0.0 0.00 0.00 0.00 54 1016.0
20260503180227 13 118 0.0 0.0 0.00 0.00 0.00 54 1016.0
20260503175713 13 308 0.0 0.0 0.00 0.00 0.00 54 1016.1
20260503175224 13 306 0.0 3.2 0.00 0.00 0.00 54 1016.0
20260503174726 13 343 0.0 3.2 0.00 0.00 0.00 55 1016.0
20260503174218 13 348 0.0 3.2 0.00 0.00 0.00 54 1016.1
20260503173705 13 328 0.0 1.6 0.00 0.00 0.00 54 1016.2
20260503173222 13 123 0.0 1.6 0.00 0.00 0.00 55 1016.4
20260503172729 13 55 0.0 11.3 0.00 0.00 0.00 56 1016.5
20260503171711 13 11 4.8 12.9 0.00 0.00 0.00 57 1016.6
20260503171218 13 318 6.4 12.9 0.00 0.00 0.00 58 1016.6
20260503170729 13 312 6.4 12.9 0.00 0.00 0.00 58 1016.6
20260503160218 15 92 0.0 0.0 0.00 0.00 0.00 50 1016.6
20260503150725 16 113 6.4 24.1 0.00 0.00 0.00 45 1016.1
20260503150217 16 9 8.0 27.4 0.00 0.00 0.00 44 1016.0
20260503131220 20 258 6.4 20.9 0.00 0.00 0.00 42 1015.6
20260503130715 20 46 9.7 27.4 0.00 0.00 0.00 43 1015.8
20260503130218 20 331 11.3 27.4 0.00 0.00 0.00 44 1015.7
20260503120216 20 307 1.6 6.4 0.00 0.00 0.00 40 1015.8
20260503110725 19 122 0.0 0.0 0.00 0.00 0.00 38 1016.4
20260503100231 18 174 0.0 0.0 0.00 0.00 0.00 41 1016.9
20260503090213 18 174 3.2 9.7 0.00 0.00 0.00 42 1017.0
20260503081220 17 172 0.0 0.0 0.00 0.00 0.00 50 1017.3
20260503080234 17 156 0.0 0.0 0.00 0.00 0.00 51 1017.4
20260503072725 15 176 0.0 0.0 0.00 0.00 0.00 60 1017.5
20260503072226 15 159 0.0 0.0 0.00 0.00 0.00 61 1017.5
20260503071712 15 184 0.0 0.0 0.00 0.00 0.00 61 1017.5
20260503071218 14 182 0.0 0.0 0.00 0.00 0.00 64 1017.5
20260503070715 13 163 0.0 0.0 0.00 0.00 0.00 68 1017.7
20260503070219 13 178 0.0 0.0 0.00 0.00 0.00 71 1017.7
20260503060229 11 320 0.0 0.0 0.00 0.00 0.00 76 1017.4
20260503054721 11 165 0.0 0.0 0.00 0.00 0.00 76 1017.4
20260503054209 11 242 0.0 0.0 0.00 0.00 0.00 75 1017.3
20260503053714 11 242 0.0 0.0 0.00 0.00 0.00 75 1017.4
20260503053213 10 242 0.0 0.0 0.00 0.00 0.00 76 1017.3
20260503052716 10 242 0.0 0.0 0.00 0.00 0.00 75 1017.4
20260503052215 10 242 0.0 0.0 0.00 0.00 0.00 75 1017.3
20260503051714 10 242 0.0 0.0 0.00 0.00 0.00 75 1017.2
20260503051212 10 242 0.0 0.0 0.00 0.00 0.00 74 1017.2
20260503050208 10 176 0.0 0.0 0.00 0.00 0.00 73 1017.2
20260503045723 10 176 0.0 0.0 0.00 0.00 0.00 73 1017.2
20260503045220 10 176 0.0 0.0 0.00 0.00 0.00 73 1017.2
20260503044732 10 138 0.0 8.0 0.00 0.00 0.00 74 1017.1
20260503044214 10 135 1.6 8.0 0.00 0.00 0.00 74 1017.0
20260503043711 10 214 1.6 8.0 0.00 0.00 0.00 73 1017.0
20260503042717 10 39 0.0 0.0 0.00 0.00 0.00 74 1016.9
20260503042217 10 39 0.0 0.0 0.00 0.00 0.00 73 1017.0
20260503041721 10 39 0.0 0.0 0.00 0.00 0.00 74 1016.9
20260503041223 10 39 0.0 0.0 0.00 0.00 0.00 74 1016.9
20260503040714 10 39 0.0 0.0 0.00 0.00 0.00 73 1016.9
20260503040214 11 39 0.0 0.0 0.00 0.00 0.00 73 1016.9
20260503035719 11 39 0.0 0.0 0.00 0.00 0.00 73 1017.0
20260503035228 11 39 0.0 0.0 0.00 0.00 0.00 73 1017.0
20260503034215 11 39 0.0 0.0 0.00 0.00 0.00 73 1017.0
20260503033715 11 39 0.0 0.0 0.00 0.00 0.00 73 1017.0
20260503033224 11 32 0.0 0.0 0.00 0.00 0.00 74 1017.0
20260503032713 11 32 0.0 0.0 0.00 0.00 0.00 74 1017.1
20260503032216 11 32 0.0 6.4 0.00 0.00 0.00 74 1017.1
20260503031726 11 28 0.0 9.7 0.00 0.00 0.00 74 1017.1
20260503031215 11 5 1.6 9.7 0.00 0.00 0.00 73 1017.1
20260503030229 11 355 0.0 0.0 0.00 0.00 0.00 76 1017.2
20260503025733 11 355 0.0 0.0 0.00 0.00 0.00 77 1017.2
20260503025218 11 69 0.0 0.0 0.00 0.00 0.00 77 1017.3
20260503023724 11 69 0.0 0.0 0.00 0.00 0.00 76 1017.5
20260503022213 11 69 0.0 0.0 0.00 0.00 0.00 76 1017.7
20260503021225 11 69 0.0 0.0 0.00 0.00 0.00 76 1017.7
20260503020210 11 69 0.0 0.0 0.00 0.00 0.00 75 1017.8
20260503015728 11 69 0.0 0.0 0.00 0.00 0.00 76 1017.8
20260503015208 11 69 0.0 0.0 0.00 0.00 0.00 76 1017.8
20260503014709 11 69 0.0 0.0 0.00 0.00 0.00 75 1017.9
20260503014215 11 69 0.0 0.0 0.00 0.00 0.00 74 1017.9
20260503013715 11 69 0.0 0.0 0.00 0.00 0.00 76 1017.9
20260503013208 11 69 0.0 0.0 0.00 0.00 0.00 76 1018.0
20260503012709 11 69 0.0 0.0 0.00 0.00 0.00 76 1018.0
20260503012220 11 69 0.0 0.0 0.00 0.00 0.00 75 1018.0
20260503011717 11 69 0.0 0.0 0.00 0.00 0.00 76 1017.9
20260503011220 11 69 0.0 0.0 0.00 0.00 0.00 75 1018.0
20260503010727 11 69 0.0 0.0 0.00 0.00 0.00 76 1017.9
20260503010212 11 69 0.0 0.0 0.00 0.00 0.00 76 1017.9
20260503005714 11 69 0.0 0.0 0.00 0.00 0.00 76 1018.0
20260503005231 11 69 0.0 0.0 0.00 0.00 0.00 76 1018.0
20260503004726 11 41 0.0 0.0 0.00 0.00 0.00 76 1018.1
20260503004212 11 41 0.0 0.0 0.00 0.00 0.00 74 1018.1
20260503003219 12 41 0.0 0.0 0.00 0.00 0.00 74 1018.3
20260503002723 12 41 0.0 0.0 0.00 0.00 0.00 74 1018.3
20260503002226 12 41 0.0 0.0 0.00 0.00 0.00 74 1018.3
20260503001728 12 41 0.0 0.0 0.00 0.00 0.00 75 1018.3
20260503001217 12 17 0.0 0.0 0.00 0.00 0.00 75 1018.3
20260503000720 12 28 0.0 0.0 0.00 0.00 0.00 75 1018.3
20260503000225 12 34 0.0 0.0 0.00 0.00 0.00 75 1018.4
20260502235718 12 34 0.0 0.0 0.00 0.00 0.00 75 1018.5
20260502235211 12 34 0.0 0.0 0.00 0.00 0.00 75 1018.5
20260502234716 12 34 0.0 0.0 0.00 0.00 0.00 75 1018.5
20260502234221 12 34 0.0 0.0 0.00 0.00 0.00 75 1018.6
20260502233220 12 34 0.0 0.0 0.00 0.00 0.00 75 1018.6
20260502232714 12 34 0.0 0.0 0.00 0.00 0.00 74 1018.6
20260502232231 12 34 0.0 0.0 0.00 0.00 0.00 74 1018.6
20260502231713 12 34 0.0 0.0 0.00 0.00 0.00 73 1018.6